Temp
-11 -11 -11 -11 -11 -11 -11 -11 -11 -10 -10 -10 -10 -10 -9 -9 -9 -9 -10 -10 -10 -10 -9 -10 -10 -10 -10 -10 -10 -10 -10 -10 -9 -10 -10 -10 -10 -11 -11 -11 -11 -11 -11
-11 -11 -12 -12 -11 -11 -11 -12 -11 -11 -11 -10 -11 -11 -10 -10 -10 -10 -10 -10 -10 -10 -10 -10 -10 -10 -10 -10 -10 -10 -10 -10 -10 -10 -11 -11 -11 -11 -11 -11 -11 -11 -12
-12 -11 -11 -11 -12 -12 -12 -12 -12 -11 -11 -11 -11 -11 -11 -11 -10 -10 -10 -10 -10 -10 -10 -10 -10 -10 -10 -10 -10 -10 -10 -10 -10 -11 -11 -11 -11 -11 -11 -11 -11 -12 -11
-12 -12 -12 -12 -12 -12 -12 -12 -13 -13 -12 -11 -11 -11 -11 -11 -11 -11 -11 -11 -11 -10 -10 -10 -11 -10 -10 -11 -10 -10 -10 -11 -11 -12 -12 -12 -12 -12 -12 -12 -12 -12 -12
-12 -13 -12 -12 -12 -12 -12 -12 -13 -13 -13 -12 -12 -12 -11 -11 -11 -11 -11 -11 -10 -10 -10 -10 -10 -11 -11 -11 -11 -11 -11 -11 -11 -11 -12 -12 -12 -12 -12 -12 -12 -12 -12
-13 -13 -13 -13 -13 -13 -12 -12 -12 -12 -13 -13 -12 -12 -12 -12 -12 -11 -11 -11 -11 -10 -11 -10 -11 -11 -11 -11 -11 -11 -11 -11 -11 -11 -12 -12 -12 -12 -12 -12 -11 -12 -12
-13 -13 -13 -13 -13 -12 -12 -12 -13 -12 -12 -13 -13 -13 -13 -13 -12 -12 -12 -11 -11 -11 -11 -11 -11 -11 -11 -11 -12 -12 -12 -12 -12 -12 -12 -12 -12 -12 -12 -12 -12 -13 -12
-13 -13 -13 -13 -13 -13 -13 -12 -13 -13 -13 -13 -13 -13 -13 -13 -13 -13 -12 -12 -11 -12 -12 -12 -12 -12 -12 -12 -12 -12 -12 -12 -12 -12 -12 -12 -12 -13 -13 -13 -13 -12 -12
-13 -13 -13 -13 -13 -14 -14 -13 -13 -13 -13 -13 -13 -13 -13 -13 -13 -13 -13 -13 -12 -12 -12 -12 -12 -12 -12 -12 -12 -12 -12 -12 -12 -12 -13 -13 -13 -13 -13 -13 -13 -12 -12
-14 -14 -15 -14 -14 -13 -14 -14 -14 -14 -13 -13 -13 -13 -13 -13 -13 -13 -13 -13 -13 -13 -13 -12 -12 -12 -12 -12 -12 -12 -12 -12 -13 -13 -13 -12 -13 -12 -13 -13 -13 -12 -13
-15 -14 -14 -13 -14 -15 -14 -14 -14 -14 -14 -13 -13 -13 -13 -13 -13 -13 -13 -13 -13 -13 -13 -12 -13 -13 -12 -13 -13 -13 -12 -12 -12 -12 -13 -12 -12 -12 -13 -13 -13 -13 -12
-15 -14 -13 -14 -13 -14 -14 -14 -14 -14 -14 -14 -13 -13 -13 -13 -13 -14 -13 -13 -13 -13 -13 -13 -12 -13 -13 -13 -13 -12 -13 -12 -12 -12 -12 -13 -13 -13 -13 -12 -12 -12 -12
-16 -15 -14 -14 -14 -14 -15 -14 -14 -14 -14 -14 -14 -13 -13 -13 -13 -13 -13 -13 -13 -13 -13 -12 -13 -13 -13 -13 -13 -13 -13 -13 -13 -13 -13 -13 -13 -13 -12 -12 -12 -12 -12
-15 -15 -15 -14 -14 -15 -15 -15 -15 -14 -15 -14 -14 -13 -14 -14 -13 -13 -13 -13 -13 -13 -13 -12 -12 -13 -13 -13 -13 -12 -13 -12 -13 -13 -13 -14 -13 -13 -13 -13 -13 -13 -13
-15 -15 -15 -15 -14 -15 -15 -15 -14 -14 -14 -15 -15 -15 -14 -14 -14 -13 -13 -12 -13 -13 -12 -12 -12 -13 -13 -12 -12 -12 -13 -12 -13 -14 -14 -14 -14 -13 -13 -13 -13 -13 -13
-15 -15 -15 -15 -15 -15 -15 -14 -14 -14 -15 -15 -15 -15 -15 -15 -15 -14 -13 -13 -13 -13 -13 -12 -12 -12 -12 -12 -12 -12 -13 -13 -14 -15 -15 -14 -14 -14 -14 -14 -14 -14 -14
-16 -16 -16 -16 -15 -16 -16 -15 -14 -14 -14 -14 -15 -15 -15 -15 -15 -15 -14 -13 -13 -13 -13 -12 -12 -11 -12 -12 -13 -13 -13 -14 -14 -16 -15 -14 -15 -15 -14 -14 -15 -15 -15
-16 -16 -16 -16 -16 -16 -16 -15 -15 -15 -16 -16 -16 -15 -15 -16 -15 -15 -15 -15 -15 -13 -13 -13 -13 -13 -12 -13 -13 -13 -14 -14 -16 -16 -15 -15 -15 -15 -15 -15 -15 -15 -15
-17 -17 -17 -17 -17 -17 -17 -17 -17 -17 -17 -16 -16 -16 -16 -15 -15 -15 -15 -15 -16 -15 -14 -14 -14 -13 -14 -14 -13 -14 -15 -15 -16 -16 -15 -16 -16 -16 -16 -15 -15 -15 -15
-17 -17 -17 -17 -17 -17 -17 -17 -17 -17 -16 -16 -16 -16 -16 -16 -15 -15 -15 -15 -15 -15 -15 -16 -16 -15 -15 -15 -15 -15 -16 -16 -16 -17 -17 -17 -16 -16 -16 -16 -16 -16 -16
-17 -17 -18 -18 -18 -17 -17 -17 -17 -17 -17 -17 -16 -16 -16 -16 -16 -15 -15 -15 -15 -15 -15 -15 -15 -16 -16 -15 -15 -15 -16 -16 -17 -17 -17 -16 -16 -16 -16 -16 -16 -16 -16
-19 -19 -19 -18 -18 -18 -18 -17 -17 -17 -17 -17 -17 -17 -16 -16 -16 -16 -15 -15 -15 -15 -15 -15 -15 -16 -16 -16 -16 -16 -16 -16 -16 -17 -16 -16 -16 -16 -16 -16 -16 -17 -17
-21 -20 -19 -19 -19 -19 -18 -18 -18 -18 -18 -17 -17 -17 -17 -17 -17 -16 -16 -16 -16 -16 -16 -16 -16 -16 -16 -16 -16 -16 -16 -16 -16 -16 -16 -16 -16 -16 -17 -17 -17 -17 -17
-22 -22 -21 -20 -20 -20 -19 -19 -19 -18 -18 -18 -18 -18 -17 -17 -18 -18 -17 -17 -17 -16 -16 -16 -17 -17 -17 -17 -17 -17 -17 -17 -17 -16 -16 -17 -17 -17 -17 -17 -17 -17 -17
-24 -22 -22 -22 -21 -21 -20 -20 -19 -18 -18 -18 -18 -18 -18 -18 -18 -18 -19 -18 -18 -17 -17 -17 -17 -17 -17 -17 -17 -17 -17 -17 -17 -17 -17 -17 -17 -17 -17 -17 -18 -18 -18
-26 -25 -24 -23 -22 -22 -21 -21 -21 -20 -19 -19 -19 -19 -19 -18 -18 -18 -19 -19 -19 -18 -18 -18 -18 -18 -18 -18 -18 -18 -18 -18 -18 -18 -18 -18 -18 -18 -18 -18 -18 -18 -18
Height
5745 5752 5756 5761 5765 5768 5773 5780 5783 5786 5789 5794 5798 5802 5808 5811 5814 5818 5822 5826 5828 5831 5833 5836 5837 5839 5841 5843 5845 5846 5847 5848 5849 5848 5847 5847 5846 5845 5843 5842 5840 5839 5836
5733 5742 5746 5752 5758 5763 5768 5773 5780 5782 5785 5789 5793 5797 5802 5807 5810 5814 5819 5822 5825 5828 5830 5832 5835 5836 5838 5840 5841 5843 5844 5845 5845 5845 5844 5843 5843 5841 5840 5838 5837 5835 5833
5725 5735 5741 5745 5751 5757 5762 5767 5774 5779 5782 5784 5787 5790 5795 5800 5805 5812 5816 5819 5821 5823 5827 5829 5830 5831 5834 5836 5838 5839 5840 5841 5841 5841 5841 5839 5838 5837 5836 5835 5833 5831 5828
5714 5723 5732 5740 5744 5752 5756 5762 5766 5771 5777 5780 5783 5788 5793 5798 5803 5806 5809 5813 5816 5819 5822 5824 5826 5828 5831 5833 5833 5834 5834 5835 5836 5836 5836 5835 5835 5833 5832 5830 5828 5826 5823
5704 5713 5721 5731 5738 5743 5750 5756 5760 5764 5770 5775 5779 5782 5786 5791 5795 5799 5802 5806 5811 5815 5818 5820 5822 5824 5826 5828 5828 5829 5829 5830 5830 5831 5830 5830 5829 5827 5825 5823 5821 5818 5815
5694 5703 5710 5719 5728 5734 5740 5746 5750 5755 5761 5768 5773 5776 5781 5786 5789 5793 5797 5800 5804 5807 5810 5814 5816 5817 5820 5822 5823 5824 5824 5824 5824 5824 5823 5822 5822 5820 5819 5817 5815 5812 5809
5685 5693 5699 5707 5716 5722 5731 5737 5742 5747 5751 5759 5765 5770 5775 5779 5783 5787 5789 5792 5796 5799 5801 5805 5808 5810 5812 5815 5817 5818 5818 5818 5817 5817 5816 5816 5815 5814 5812 5810 5807 5804 5802
5678 5683 5690 5697 5707 5714 5721 5728 5734 5739 5745 5750 5757 5762 5767 5771 5777 5781 5783 5786 5789 5792 5793 5795 5799 5802 5804 5807 5809 5810 5810 5811 5811 5810 5808 5807 5807 5806 5804 5802 5800 5797 5795
5669 5675 5682 5689 5697 5706 5712 5719 5725 5730 5737 5742 5747 5752 5758 5762 5769 5773 5776 5778 5781 5785 5786 5788 5790 5793 5796 5798 5799 5800 5801 5801 5801 5800 5799 5798 5796 5794 5793 5793 5792 5790 5788
5659 5666 5672 5681 5689 5698 5705 5712 5716 5722 5728 5733 5738 5743 5748 5753 5759 5763 5767 5770 5771 5774 5777 5781 5783 5785 5788 5789 5790 5790 5790 5790 5790 5789 5789 5787 5785 5784 5782 5782 5783 5782 5779
5651 5658 5664 5673 5680 5688 5696 5703 5707 5712 5719 5723 5728 5732 5735 5741 5747 5751 5757 5759 5761 5763 5767 5771 5772 5775 5776 5777 5777 5777 5779 5779 5778 5778 5778 5776 5776 5775 5774 5773 5773 5773 5771
5643 5650 5657 5663 5670 5678 5686 5694 5699 5704 5709 5713 5716 5720 5724 5727 5734 5738 5745 5747 5748 5751 5753 5757 5761 5762 5765 5765 5766 5767 5768 5767 5766 5767 5766 5766 5766 5768 5767 5765 5765 5763 5762
5634 5642 5648 5654 5661 5668 5674 5680 5686 5691 5698 5701 5704 5706 5711 5715 5719 5724 5730 5735 5737 5738 5739 5743 5748 5751 5753 5753 5755 5756 5757 5758 5755 5754 5753 5756 5759 5759 5759 5757 5757 5755 5753
5625 5632 5640 5644 5650 5656 5661 5667 5674 5678 5683 5689 5693 5695 5701 5704 5707 5713 5717 5715 5722 5726 5730 5732 5735 5738 5741 5742 5743 5742 5745 5746 5746 5746 5747 5749 5751 5751 5751 5750 5750 5747 5745
5616 5622 5628 5634 5640 5645 5650 5654 5658 5663 5670 5676 5680 5684 5688 5691 5694 5697 5693 5698 5704 5709 5716 5720 5723 5727 5731 5727 5727 5734 5733 5735 5733 5736 5738 5742 5744 5744 5742 5742 5742 5740 5737
5604 5611 5616 5622 5628 5633 5638 5641 5646 5651 5657 5664 5670 5673 5677 5681 5683 5686 5685 5689 5693 5699 5702 5708 5711 5717 5716 5710 5721 5717 5723 5722 5722 5727 5731 5733 5735 5736 5733 5734 5734 5732 5729
5590 5598 5603 5609 5615 5621 5625 5628 5633 5636 5645 5650 5655 5663 5668 5671 5674 5675 5677 5677 5678 5685 5686 5697 5697 5701 5707 5708 5710 5713 5714 5713 5714 5719 5724 5725 5727 5727 5726 5727 5726 5724 5724
5577 5585 5592 5597 5601 5608 5613 5619 5624 5630 5634 5638 5643 5651 5657 5661 5665 5668 5670 5676 5673 5674 5677 5680 5688 5691 5698 5695 5700 5705 5706 5704 5705 5711 5715 5717 5717 5718 5719 5718 5718 5717 5716
5566 5573 5579 5584 5589 5596 5601 5607 5613 5619 5624 5631 5637 5640 5644 5649 5654 5659 5662 5664 5664 5667 5671 5673 5677 5681 5683 5689 5692 5693 5696 5696 5698 5703 5707 5708 5709 5710 5711 5710 5711 5710 5709
5554 5561 5566 5572 5578 5584 5590 5597 5603 5608 5613 5621 5625 5630 5634 5636 5642 5647 5650 5653 5656 5660 5664 5664 5667 5671 5674 5678 5684 5683 5686 5688 5691 5696 5698 5700 5701 5703 5702 5703 5702 5703 5703
5539 5546 5552 5557 5565 5570 5577 5584 5591 5597 5602 5607 5614 5619 5623 5626 5630 5635 5639 5644 5648 5652 5655 5658 5660 5664 5667 5671 5675 5677 5678 5680 5683 5686 5690 5690 5693 5693 5693 5695 5694 5695 5694
5520 5529 5535 5542 5548 5556 5564 5573 5579 5584 5589 5594 5601 5607 5612 5615 5620 5624 5629 5634 5638 5642 5645 5649 5652 5656 5657 5660 5665 5666 5669 5672 5675 5677 5680 5682 5683 5684 5685 5686 5686 5685 5685
5503 5509 5515 5525 5534 5540 5548 5556 5564 5571 5577 5582 5588 5594 5599 5604 5608 5612 5618 5623 5627 5631 5635 5638 5642 5646 5649 5652 5655 5658 5660 5663 5665 5667 5670 5673 5673 5675 5676 5676 5676 5675 5673
5490 5495 5500 5507 5517 5524 5531 5540 5547 5554 5560 5568 5574 5580 5586 5591 5595 5600 5605 5610 5615 5620 5625 5628 5631 5634 5638 5641 5645 5648 5650 5652 5654 5657 5660 5662 5664 5665 5665 5664 5663 5662 5661
5477 5483 5490 5496 5503 5512 5517 5524 5530 5538 5546 5552 5559 5565 5571 5577 5582 5587 5592 5597 5602 5607 5611 5615 5618 5622 5625 5629 5632 5636 5639 5642 5645 5647 5649 5651 5652 5652 5652 5652 5651 5650 5650
5465 5469 5474 5482 5491 5498 5506 5511 5516 5523 5528 5535 5541 5549 5555 5561 5567 5573 5577 5582 5587 5592 5597 5601 5605 5608 5612 5616 5619 5624 5627 5629 5632 5635 5637 5638 5638 5638 5638 5638 5638 5637 5636
Wind_Speed
40 34 32 33 35 31 29 28 22 23 23 23 23 24 25 26 25 23 23 22 22 23 22 20 20 19 16 16 16 15 14 13 14 14 13 14 14 15 17 18 20 20 22
49 39 34 38 38 35 31 28 30 24 26 25 25 25 26 26 26 25 23 22 23 25 24 23 24 22 20 21 20 19 18 16 16 14 15 17 17 18 20 21 23 24 24
50 43 36 38 41 40 35 32 31 28 27 29 30 30 30 31 29 25 23 24 25 24 24 26 25 24 23 23 23 22 20 18 18 16 18 20 21 22 24 24 27 29 29
51 46 42 40 43 42 38 36 34 35 31 30 31 32 30 28 25 25 25 26 26 25 25 26 27 28 28 27 27 25 24 22 20 21 22 23 24 25 27 27 29 29 31
46 46 45 43 43 44 42 39 38 36 35 35 33 32 33 31 30 30 28 29 28 28 28 29 31 30 29 29 29 27 26 25 25 27 27 28 29 30 31 34 33 33 34
47 46 45 44 43 47 46 43 45 44 41 39 38 31 31 32 32 30 31 29 28 29 30 31 31 32 32 32 31 30 29 29 31 33 33 34 35 36 35 35 37 34 35
44 43 45 47 48 52 52 50 47 47 41 44 46 45 37 34 34 34 35 34 31 31 31 31 31 33 33 33 32 32 33 34 35 37 40 41 42 42 43 42 40 40 38
43 41 41 44 50 51 54 53 49 49 48 45 41 45 46 39 38 37 38 36 35 33 34 35 34 34 35 36 35 37 38 39 40 43 44 45 47 48 49 47 45 42 36
42 41 39 42 45 50 51 53 47 45 48 51 49 46 54 44 39 40 40 39 40 37 38 38 37 36 37 38 40 41 42 45 46 49 50 49 51 51 53 48 41 38 36
46 38 35 37 38 47 48 46 44 43 46 49 50 47 46 47 49 47 49 46 45 43 44 42 41 39 39 41 44 47 51 50 49 51 53 44 46 49 43 47 37 38 37
42 46 45 40 41 43 43 43 45 44 44 51 51 52 52 52 52 51 50 53 50 50 49 49 48 46 45 49 52 52 51 54 54 53 55 42 37 31 30 31 33 35 35
51 46 49 46 42 39 37 41 44 43 42 43 47 52 57 56 53 55 53 53 55 54 56 52 47 50 49 49 51 54 49 45 51 50 41 34 26 28 25 28 34 31 34
50 47 49 47 47 45 51 53 49 46 46 53 48 48 55 59 60 57 59 60 61 60 57 52 51 53 50 52 51 48 46 47 47 39 34 26 23 19 21 20 22 24 27
54 53 53 46 49 52 57 55 53 49 48 47 46 43 44 52 56 54 59 68 65 65 61 58 56 56 52 53 51 51 51 47 42 38 25 18 20 19 21 20 25 27 30
58 54 53 51 48 51 52 51 56 54 50 44 41 42 42 41 36 64 53 50 63 63 61 61 59 61 48 53 45 45 53 44 38 25 15 17 18 20 21 22 26 28 31
59 57 55 52 51 52 56 59 60 55 50 45 44 43 37 38 39 40 69 61 47 62 70 60 57 52 60 51 49 44 40 31 17 15 18 20 21 22 22 24 27 29 30
64 66 58 56 53 52 52 52 48 43 45 46 42 41 41 38 37 37 37 56 51 50 62 50 49 53 58 44 33 33 26 22 19 12 20 23 24 24 24 26 26 26 27
64 65 64 62 61 55 55 52 48 47 47 44 44 46 46 44 40 35 31 33 30 42 39 35 43 48 58 39 38 30 19 18 14 20 23 26 27 27 28 26 25 26 26
65 63 65 65 64 61 58 54 54 52 51 50 51 50 51 50 44 39 35 32 28 28 35 32 28 36 30 23 21 23 21 18 17 23 27 29 29 29 28 27 26 26 27
67 64 64 66 66 65 63 59 58 58 58 55 55 52 50 52 46 41 35 30 27 26 27 26 25 31 29 30 32 33 26 23 25 27 30 32 32 30 28 29 28 29 30
77 73 66 63 63 63 66 65 62 61 59 59 56 53 52 50 47 41 37 33 32 29 28 27 26 25 27 29 32 31 28 30 31 33 32 31 30 29 31 31 31 31 32
59 67 67 65 60 60 60 61 61 56 57 58 56 57 54 50 49 44 42 39 37 34 31 29 28 27 27 27 30 30 30 30 30 29 30 30 31 31 32 32 34 33 34
55 56 58 65 67 66 62 62 63 57 59 60 56 56 54 51 50 47 44 42 40 37 35 32 30 29 28 29 30 31 32 31 32 34 33 33 33 34 34 34 35 36 38
59 58 57 54 55 57 63 68 65 61 62 62 60 58 56 54 50 47 44 44 43 41 40 38 37 35 33 34 34 35 35 35 36 36 36 36 36 36 38 37 38 38 40
55 62 61 58 60 57 53 54 59 68 68 66 63 64 61 58 54 51 48 46 45 45 44 42 41 40 40 39 39 39 39 39 38 38 38 39 40 40 40 40 41 42 43
53 57 60 58 57 56 55 55 56 60 65 66 67 65 64 63 60 57 53 51 49 49 48 47 45 44 43 42 42 42 43 43 44 43 43 43 44 44 43 44 45 47 47
Wind_Direction
231 220 224 219 215 219 223 221 229 219 215 213 210 209 211 212 211 212 211 215 222 228 231 228 229 235 229 231 230 234 239 250 267 284 294 296 304 310 309 301 305 315 316
231 218 215 214 217 217 219 220 223 225 215 209 206 208 213 212 214 216 222 227 229 231 234 235 233 234 233 235 234 238 247 257 270 282 285 292 300 305 308 304 300 302 308
235 228 217 215 218 222 219 215 219 221 223 213 207 207 212 215 215 221 229 233 235 236 238 241 242 243 241 241 240 245 252 260 268 273 278 285 290 295 298 302 303 304 306
229 227 221 219 219 223 221 214 218 218 222 225 217 213 216 221 223 227 231 234 236 239 242 244 246 246 244 241 242 249 256 263 270 276 282 283 286 287 292 296 302 300 302
233 228 224 214 217 219 219 219 220 218 221 228 226 224 224 222 222 224 228 233 233 239 241 244 247 247 245 243 244 250 258 264 269 274 279 282 283 286 291 298 301 302 306
231 229 228 220 220 214 215 216 217 223 212 221 227 230 231 231 231 231 233 235 234 237 244 247 250 249 246 245 247 253 261 265 270 273 277 281 282 286 291 296 301 300 306
221 226 226 217 212 214 213 215 219 228 217 216 224 228 233 233 234 233 233 234 234 235 240 244 246 249 249 251 255 260 264 268 272 274 278 279 280 285 288 292 294 298 295
216 224 225 222 211 215 215 213 215 221 228 233 229 238 227 232 235 239 244 240 238 236 239 239 241 245 250 255 261 266 268 270 274 278 279 282 283 285 287 283 287 292 288
213 219 222 222 218 214 213 215 214 222 225 232 233 243 227 231 236 243 243 250 247 243 246 247 247 247 250 255 259 263 268 271 274 275 281 286 280 281 285 284 284 278 283
210 217 230 223 224 217 218 219 214 223 226 229 235 238 237 238 238 242 246 246 251 251 251 253 253 253 256 259 262 265 268 270 273 278 277 278 278 282 280 281 274 285 284
216 214 221 227 223 225 219 222 220 223 226 230 233 236 239 237 238 240 243 248 246 252 255 252 250 254 257 260 263 265 271 274 277 276 278 271 271 275 274 277 279 280 288
216 221 218 226 223 215 216 221 234 229 230 232 232 235 239 240 238 240 240 244 253 251 252 252 261 256 259 261 265 266 270 272 281 275 256 251 253 265 280 279 273 284 283
217 226 223 227 225 223 227 230 229 230 232 235 236 238 236 240 241 240 241 243 244 246 250 248 251 257 263 266 267 267 269 275 273 247 240 233 249 260 270 282 282 290 295
215 218 218 221 224 224 226 227 229 226 227 231 238 240 240 241 244 247 247 242 237 244 249 248 250 255 261 266 270 252 262 272 247 248 241 233 245 256 269 277 288 294 293
214 216 214 219 227 233 232 228 227 226 222 229 236 242 236 243 253 237 249 243 230 237 246 244 255 250 253 262 240 250 259 246 240 230 229 240 259 271 279 288 291 289 287
210 216 221 223 226 228 231 230 228 226 223 228 237 239 249 255 259 261 251 241 241 243 244 239 251 243 254 240 238 236 235 229 252 228 234 250 265 272 277 280 278 281 281
220 220 227 228 226 227 230 235 229 226 226 231 232 240 251 260 260 263 266 252 256 254 245 233 236 232 244 237 224 236 240 247 253 261 250 258 266 272 277 274 272 276 277
220 222 224 223 227 227 228 234 238 232 236 241 247 253 258 264 263 259 263 263 267 263 252 266 249 230 237 228 223 254 247 254 240 246 253 258 264 270 275 269 270 272 277
219 219 221 224 224 225 233 233 238 242 245 247 251 256 262 260 259 255 253 255 261 265 270 257 253 238 258 257 265 256 249 251 258 251 257 258 261 266 267 264 268 269 274
224 226 225 226 229 228 228 230 235 239 242 241 248 253 257 258 254 252 251 250 252 255 260 267 268 272 274 273 267 247 269 262 258 254 252 255 260 266 260 264 265 269 275
231 230 231 232 230 232 233 233 233 236 240 244 247 249 255 252 251 250 248 249 249 249 250 248 245 238 238 236 242 249 248 246 243 246 252 257 259 258 261 264 270 274 276
229 234 236 234 235 237 236 234 235 235 240 243 247 249 252 253 249 246 245 244 245 246 243 240 236 233 232 232 235 238 242 243 244 247 250 255 258 259 261 266 271 275 274
222 226 230 231 235 238 236 237 232 233 238 241 244 249 248 248 246 244 243 244 245 245 246 245 241 236 237 238 238 241 245 248 250 253 253 256 256 258 261 266 270 273 275
228 228 229 229 230 229 235 237 239 241 236 233 238 242 244 244 242 242 241 242 242 242 242 243 244 245 244 244 246 246 249 250 252 258 260 259 257 261 264 267 271 276 280
227 230 232 230 229 229 227 230 235 237 237 238 235 234 237 238 240 242 240 238 240 241 243 245 248 248 249 248 251 253 254 257 259 262 263 263 264 267 271 273 276 278 281
231 228 233 233 230 231 227 225 229 232 230 228 231 233 234 237 238 240 240 242 244 244 246 248 250 251 252 255 258 260 263 264 265 266 266 268 270 272 273 275 277 281 284